FREGAT R/B, 44300

Orbit data source: Space-Track

FREGAT R/B, 44300 is space debris in MEO originally from a launch on Mon, 27 May 2019 UTC launched from the Plesetsk Missile And Space Complex (PKMTR). Debris objects in space refer to the collection of defunct objects orbiting the Earth. Examples of debris include non-operational satellites, rocket bodies, and fragments generated from explosions, collisions, or faulty payload assembly.

Loading next visibility...
FREGAT R/B details
Identifier
44300, 2019-030B
Orbit
MEO
Last TLE update3 days ago
Origin
Flag of CISLavochkin (CIS)
ManufacturerLavochkin
MissionSpacecraft
Bus & MotorFREGAT, Unknown motor
Mass1,000 kg wet, 1,000 kg dry
Launch date (UTC)
2019-05-27 (6 years ago)
Launch vehicleUnknown
Launch site
Plesetsk Missile And Space Complex (PKMTR)
Object type
Payload
Rocket body
Debris
Shape & HBRIrr, 3.48 m
Radar Cross Section12.110 m², Large (>1 m²)

Expand to show TLE details & history

TLE from 3 days ago
0 FREGAT R/B
1 44300U 19030B   24358.37331463  .00000071  00000-0  00000-0 0  9994
2 44300  64.3049 213.5778 0074388 135.0763 225.6018  2.09028932 42585
Epoch: 2024-12-23T08:57Z
Definitive object data (Epoch: 2024-12-23T08:57:34.384Z)
Latitude0.00006°
Longitude-13.20709°
Altitude19,596.012 km
Speed3.907 km/s
True Right ascension14h 14m 19s
True Declination0° 00' 00"
Sunlit
Object was in daylight at TLE epoch
Visualization TLE readout
Latitude14.98438°
Longitude159.30172°
Altitude19,290.665 km
Speed3.954 km/s
Apparent Right ascension01h 13m 34s
Apparent Declination5° 10' 56"
Sunlit
Object is in daylight
Visualization observer readout
Local Sidereal Time10:22:49
Azimuth308.6° NW
Elevation-30.233°
Doppler factor1
Orbital elements
Apogee altitude19,652.029 km
Perigee altitude19,267.622 km
Semi-major axis25,837.962 km
Eccentricity0.0074388
Inclination64.3049°
RAAN213.5778°
Arg. of periapsis135.0763°
True anomaly224.9967°
Mean anomaly225.6018°
Eccentric anomaly225.29885°
Mean motion0.52258 °/min
BSTARUnknown
Orbital period688.88 mins
Loading maneuver chart data...
Loading historical data...
Loading historical data...
Loading historical data...
Loading historical data...
Loading historical data...
Loading historical data...
Loading historical data...
Other satellites on launch #30 in the year 2019 (2019-05-27 UTC)

FREGAT R/B Visibility forecast

Observer location: undefined°, undefined

Span
Click to sort rows by Start time (UTC) header in descending order
Start Az.
Max El. time (UTC)
Max El. Az.
Max El.
End time (UTC)
End Az.
378 mins2024-12-26 16:44:32.875Z218.626° SW2024-12-26 19:33:32.875Z329.674° NNW41.088°2024-12-26 23:02:32.875Z112.704° SE
|